N12215 KVGT-KSBS

Flight info

Callsign N12215
Flight time N/A
Altitude 13000
Route NOTWN5 LAS V394 MMM V8 JNC V220 HABRO
Aircraft BE36/L-VGD/C

Departure

Time 2026-04-11 23:30
Airport North Las Vegas Airport (KVGT)

Arrival

Time N/A
Airport Steamboat Springs Bob Adams Field (KSBS)
Time Latitude Longitude Altitude Speed Heading
2026-04-11 22:57 36.20747 -115.20052 2203 ft 0 kts 45°
2026-04-11 23:21 36.20748 -115.20049 2202 ft 2 kts 80°
2026-04-11 23:21 36.20725 -115.20020 2201 ft 7 kts 124°
2026-04-11 23:22 36.20726 -115.19954 2199 ft 10 kts 48°
2026-04-11 23:22 36.20770 -115.19866 2197 ft 12 kts 107°
2026-04-11 23:22 36.20768 -115.19759 2196 ft 12 kts 80°
2026-04-11 23:22 36.20772 -115.19637 2192 ft 15 kts 91°
2026-04-11 23:23 36.20816 -115.19515 2188 ft 16 kts 44°
2026-04-11 23:23 36.20900 -115.19411 2187 ft 17 kts 45°
2026-04-11 23:23 36.20990 -115.19308 2187 ft 17 kts 43°
2026-04-11 23:23 36.21077 -115.19202 2183 ft 17 kts 41°
2026-04-11 23:24 36.21160 -115.19102 2183 ft 17 kts 45°
2026-04-11 23:24 36.21252 -115.18993 2182 ft 17 kts 44°
2026-04-11 23:24 36.21289 -115.18864 2181 ft 15 kts 83°
2026-04-11 23:24 36.21295 -115.18738 2178 ft 14 kts 90°
2026-04-11 23:25 36.21294 -115.18697 2177 ft 1 kts 94°
2026-04-11 23:27 36.21301 -115.18647 2177 ft 8 kts 27°
2026-04-11 23:27 36.21348 -115.18650 2178 ft 5 kts 360°
2026-04-11 23:28 36.21357 -115.18699 2179 ft 12 kts 271°
2026-04-11 23:28 36.21352 -115.18948 2184 ft 43 kts 262°
2026-04-11 23:28 36.21337 -115.19413 2192 ft 60 kts 253°
2026-04-11 23:28 36.21335 -115.19967 2205 ft 68 kts 274°
2026-04-11 23:29 36.21388 -115.20514 2245 ft 62 kts 275°
2026-04-11 23:29 36.21482 -115.21021 2263 ft 61 kts 272°
2026-04-11 23:29 36.21614 -115.21535 2280 ft 63 kts 276°
2026-04-11 23:29 36.21824 -115.22043 2311 ft 68 kts 284°
2026-04-11 23:30 36.22060 -115.22529 2347 ft 62 kts 277°
2026-04-11 23:30 36.22076 -115.22570 2849 ft 0 kts 274°
2026-04-11 23:30 36.22093 -115.23080 3023 ft 83 kts 261°
2026-04-11 23:31 36.22199 -115.23802 3181 ft 90 kts 276°
2026-04-11 23:31 36.22458 -115.24513 3324 ft 93 kts 281°
2026-04-11 23:31 36.22742 -115.25234 3525 ft 91 kts 282°
2026-04-11 23:31 36.23031 -115.25951 3682 ft 93 kts 279°
2026-04-11 23:32 36.23325 -115.26673 3857 ft 95 kts 282°
2026-04-11 23:32 36.23614 -115.27415 4012 ft 101 kts 285°
2026-04-11 23:32 36.24133 -115.28082 4151 ft 111 kts 306°
2026-04-11 23:32 36.24778 -115.28647 4302 ft 121 kts 329°
2026-04-11 23:33 36.25647 -115.28632 4488 ft 130 kts 17°
2026-04-11 23:33 36.26363 -115.27926 4616 ft 131 kts 62°
2026-04-11 23:33 36.26556 -115.26901 4787 ft 118 kts 107°
2026-04-11 23:33 36.26206 -115.26089 4919 ft 103 kts 151°
2026-04-11 23:34 36.25579 -115.25794 5083 ft 93 kts 174°
2026-04-11 23:34 36.24943 -115.25575 5224 ft 96 kts 171°
2026-04-11 23:34 36.24311 -115.25298 5383 ft 96 kts 168°
2026-04-11 23:34 36.23675 -115.24992 5528 ft 98 kts 166°
2026-04-11 23:35 36.23053 -115.24663 5692 ft 97 kts 165°
2026-04-11 23:35 36.22421 -115.24321 5821 ft 100 kts 166°
2026-04-11 23:35 36.21794 -115.23965 5993 ft 98 kts 164°
2026-04-11 23:35 36.21167 -115.23612 6112 ft 101 kts 164°
2026-04-11 23:36 36.20535 -115.23247 6278 ft 98 kts 165°
2026-04-11 23:36 36.19912 -115.22890 6423 ft 98 kts 164°
2026-04-11 23:36 36.19285 -115.22528 6561 ft 99 kts 164°
2026-04-11 23:36 36.18653 -115.22166 6673 ft 102 kts 163°
2026-04-11 23:37 36.18017 -115.21795 6842 ft 98 kts 164°
2026-04-11 23:37 36.17394 -115.21435 6961 ft 100 kts 164°
2026-04-11 23:37 36.16756 -115.21068 7080 ft 101 kts 164°
2026-04-11 23:37 36.16124 -115.20701 7223 ft 100 kts 163°
2026-04-11 23:38 36.15485 -115.20333 7322 ft 102 kts 163°
2026-04-11 23:38 36.14848 -115.19961 7460 ft 101 kts 163°
2026-04-11 23:38 36.14206 -115.19592 7581 ft 101 kts 164°
2026-04-11 23:38 36.13565 -115.19224 7679 ft 103 kts 163°
2026-04-11 23:39 36.12911 -115.18843 7819 ft 101 kts 164°
2026-04-11 23:39 36.12266 -115.18472 7871 ft 107 kts 164°
2026-04-11 23:39 36.11563 -115.18069 7942 ft 112 kts 163°
2026-04-11 23:39 36.10842 -115.17654 8054 ft 114 kts 163°
2026-04-11 23:40 36.10126 -115.17239 8171 ft 114 kts 163°
2026-04-11 23:40 36.09404 -115.16824 8284 ft 115 kts 162°
2026-04-11 23:40 36.08841 -115.16103 8412 ft 129 kts 121°
2026-04-11 23:40 36.08823 -115.14934 8523 ft 144 kts 77°
2026-04-11 23:41 36.09420 -115.13917 8639 ft 149 kts 45°
2026-04-11 23:41 36.10181 -115.13060 8740 ft 150 kts 44°
2026-04-11 23:41 36.10940 -115.12169 8844 ft 150 kts 45°
2026-04-11 23:41 36.11676 -115.11272 8948 ft 150 kts 48°
2026-04-11 23:42 36.12404 -115.10365 9062 ft 148 kts 48°
2026-04-11 23:42 36.13141 -115.09439 9141 ft 148 kts 47°
2026-04-11 23:42 36.13875 -115.08514 9219 ft 149 kts 48°
2026-04-11 23:43 36.15311 -115.06696 9421 ft 146 kts 49°
2026-04-11 23:43 36.16036 -115.05778 9503 ft 147 kts 49°
2026-04-11 23:43 36.17473 -115.03954 9651 ft 149 kts 48°
2026-04-11 23:44 36.18204 -115.03031 9717 ft 151 kts 49°
2026-04-11 23:44 36.18939 -115.02097 9792 ft 151 kts 48°
2026-04-11 23:44 36.19674 -115.01164 9891 ft 149 kts 47°
2026-04-11 23:44 36.20392 -115.00253 9971 ft 149 kts 47°
2026-04-11 23:45 36.21123 -114.99326 10053 ft 149 kts 47°
2026-04-11 23:45 36.21846 -114.98408 10133 ft 149 kts 47°
2026-04-11 23:45 36.22572 -114.97485 10211 ft 149 kts 47°
2026-04-11 23:45 36.23308 -114.96554 10264 ft 151 kts 47°
2026-04-11 23:46 36.24031 -114.95637 10378 ft 148 kts 46°
2026-04-11 23:46 36.24762 -114.94709 10445 ft 149 kts 47°
2026-04-11 23:46 36.25486 -114.93788 10514 ft 150 kts 47°
2026-04-11 23:46 36.26208 -114.92870 10607 ft 149 kts 47°
2026-04-11 23:47 36.26922 -114.91962 10733 ft 145 kts 47°
2026-04-11 23:47 36.27615 -114.91080 10857 ft 141 kts 47°
2026-04-11 23:47 36.28291 -114.90221 10960 ft 139 kts 47°
2026-04-11 23:47 36.28967 -114.89363 11042 ft 138 kts 47°
2026-04-11 23:48 36.29646 -114.88499 11116 ft 139 kts 47°
2026-04-11 23:48 36.30322 -114.87635 11198 ft 138 kts 47°
2026-04-11 23:48 36.30985 -114.86791 11310 ft 135 kts 46°
2026-04-11 23:48 36.31628 -114.85973 11425 ft 131 kts 46°
2026-04-11 23:49 36.32258 -114.85170 11544 ft 128 kts 46°
2026-04-11 23:49 36.32894 -114.84360 11591 ft 133 kts 45°
2026-04-11 23:49 36.33555 -114.83519 11613 ft 139 kts 46°
2026-04-11 23:49 36.34232 -114.82655 11646 ft 142 kts 46°
2026-04-11 23:50 36.34923 -114.81772 11704 ft 143 kts 46°
2026-04-11 23:50 36.35627 -114.80875 11753 ft 145 kts 46°
2026-04-11 23:50 36.36332 -114.79974 11819 ft 145 kts 46°
2026-04-11 23:50 36.37029 -114.79086 11859 ft 140 kts 47°
2026-04-11 23:51 36.37729 -114.78189 11869 ft 146 kts 46°
2026-04-11 23:51 36.38434 -114.77290 11941 ft 145 kts 46°
2026-04-11 23:51 36.39137 -114.76389 12008 ft 145 kts 46°
2026-04-11 23:51 36.39829 -114.75506 12077 ft 144 kts 46°
2026-04-11 23:52 36.40527 -114.74615 12136 ft 144 kts 46°
2026-04-11 23:52 36.41237 -114.73707 12169 ft 147 kts 46°
2026-04-11 23:52 36.41950 -114.72794 12186 ft 150 kts 45°
2026-04-11 23:52 36.42683 -114.71858 12220 ft 151 kts 46°
2026-04-11 23:53 36.43417 -114.70918 12288 ft 150 kts 46°
2026-04-11 23:53 36.44143 -114.69986 12360 ft 149 kts 45°
2026-04-11 23:53 36.44862 -114.69065 12411 ft 149 kts 45°
2026-04-11 23:53 36.45586 -114.68140 12463 ft 150 kts 45°
2026-04-11 23:54 36.46313 -114.67208 12512 ft 150 kts 46°
2026-04-11 23:54 36.47035 -114.66283 12583 ft 149 kts 45°
2026-04-11 23:54 36.47755 -114.65357 12641 ft 148 kts 46°
2026-04-11 23:54 36.48478 -114.64429 12682 ft 149 kts 45°
2026-04-11 23:55 36.49202 -114.63500 12737 ft 149 kts 45°
2026-04-11 23:55 36.49923 -114.62576 12796 ft 149 kts 45°
2026-04-11 23:55 36.50651 -114.61640 12835 ft 150 kts 45°
2026-04-11 23:55 36.51381 -114.60699 12892 ft 150 kts 45°
2026-04-11 23:56 36.52105 -114.59771 12947 ft 150 kts 45°
2026-04-11 23:56 36.52834 -114.58836 12961 ft 153 kts 45°
2026-04-11 23:56 36.53584 -114.57872 12961 ft 156 kts 45°
2026-04-11 23:56 36.54339 -114.56902 12964 ft 159 kts 45°
2026-04-11 23:57 36.55122 -114.55894 12964 ft 162 kts 45°
2026-04-11 23:57 36.55916 -114.54872 12963 ft 165 kts 45°
2026-04-11 23:57 36.56715 -114.53843 12961 ft 168 kts 45°
2026-04-11 23:57 36.57540 -114.52781 12967 ft 171 kts 46°
2026-04-11 23:58 36.58378 -114.51701 12971 ft 173 kts 45°
2026-04-11 23:58 36.59216 -114.50622 12978 ft 175 kts 45°
2026-04-11 23:58 36.60063 -114.49531 12980 ft 177 kts 46°
2026-04-11 23:58 36.60915 -114.48431 12981 ft 178 kts 46°
2026-04-11 23:59 36.61779 -114.47316 12977 ft 180 kts 46°
2026-04-11 23:59 36.62660 -114.46181 12976 ft 181 kts 46°
2026-04-11 23:59 36.63530 -114.45056 12973 ft 182 kts 46°
2026-04-11 23:59 36.64415 -114.43913 12975 ft 182 kts 46°
2026-04-12 00:00 36.65292 -114.42782 12974 ft 183 kts 45°
2026-04-12 00:00 36.66164 -114.41653 12976 ft 183 kts 46°
2026-04-12 00:00 36.67053 -114.40505 12974 ft 183 kts 46°
2026-04-12 00:00 36.67941 -114.39359 12973 ft 183 kts 46°
2026-04-12 00:01 36.68825 -114.38217 12973 ft 183 kts 46°
2026-04-12 00:01 36.69712 -114.37069 12972 ft 184 kts 46°
2026-04-12 00:01 36.70591 -114.35930 12969 ft 184 kts 46°
2026-04-12 00:01 36.71486 -114.34772 12965 ft 185 kts 46°
2026-04-12 00:02 36.72384 -114.33611 12960 ft 185 kts 46°
2026-04-12 00:02 36.73267 -114.32468 12960 ft 184 kts 46°
2026-04-12 00:02 36.74152 -114.31323 12961 ft 184 kts 47°
2026-04-12 00:02 36.75050 -114.30159 12961 ft 184 kts 46°
2026-04-12 00:03 36.75930 -114.29015 12956 ft 185 kts 46°
2026-04-12 00:03 36.76819 -114.27846 12950 ft 184 kts 52°
2026-04-12 00:03 36.77522 -114.26523 12953 ft 183 kts 61°
2026-04-12 00:03 36.78169 -114.25169 12960 ft 183 kts 62°
2026-04-12 00:04 36.78819 -114.23800 12964 ft 182 kts 62°
2026-04-12 00:04 36.79469 -114.22432 12967 ft 182 kts 61°
2026-04-12 00:04 36.80118 -114.21072 12969 ft 183 kts 61°
2026-04-12 00:04 36.80769 -114.19712 12968 ft 182 kts 61°
2026-04-12 00:05 36.81419 -114.18353 12968 ft 182 kts 61°